Vertical_Velocity
-4 -1 -1 5 3 3 2 1 5 -0 -3 -1 2 5 -1 -5 -4 17 5 10 14 2 4 0 3 7 11 5 -4 7 -5 0 1 2 1 -2 2 -5 4 -4 -5 -6 -1 -1 3 3 -5 -1 7 1 6 2 -4 -3
0 -8 2 -0 1 2 0 1 0 -2 -3 -3 6 5 2 11 -4 35 14 -9 9 -5 1 3 3 1 -3 1 -5 10 -5 -3 -3 0 3 1 0 2 -1 -1 4 3 -6 4 -2 -2 1 -2 -2 -3 2 -1 -5 1
-10 5 1 1 0 -1 1 1 0 -1 -0 2 2 8 10 -4 14 2 8 -5 6 -9 2 2 -2 3 1 1 5 -19 3 -2 3 -1 -1 0 -0 -0 -1 -5 3 0 -0 0 3 -6 -2 3 -6 -2 -0 -0 1 -1
10 3 5 2 -0 -0 0 -0 -3 5 3 -5 15 -20 -5 -4 6 6 8 3 4 -8 -7 3 5 -1 4 4 4 0 -8 -4 -12 -3 -2 -1 -0 1 0 3 2 -3 2 -2 -5 -4 -2 -7 -3 -1 -5 0 2 -2
1 -1 1 -3 1 -0 3 -0 -1 -1 1 -2 -1 -14 9 10 9 16 13 3 6 -11 -6 -0 7 4 3 6 1 -1 -1 -10 -4 1 1 0 0 2 0 2 0 -3 -5 -1 -4 0 3 -5 -4 -1 1 1 0 4
-3 2 1 1 1 -3 11 1 1 6 8 4 3 12 20 10 -4 10 -7 19 6 2 -21 -1 2 -0 1 -0 1 1 3 3 -2 -5 0 1 -7 5 1 0 2 -1 1 2 -1 5 3 -4 -4 -4 0 -1 -3 4
0 -0 -1 3 4 -0 -1 -0 4 -4 -7 -2 -6 6 34 52 38 5 -17 -25 3 4 -22 2 2 -6 2 1 5 -3 3 1 4 -1 2 -1 2 -0 1 1 4 -3 -0 -1 -1 3 -6 -3 -0 4 -2 -4 2 5
2 -2 -0 -2 1 3 -6 -0 2 0 19 -0 -0 0 7 4 7 -11 14 18 9 -18 -12 -3 5 -0 0 1 -2 0 2 1 -1 1 -1 1 1 1 1 -1 -1 -2 -0 -3 1 7 6 -0 1 4 10 -0 -8 -5
6 -0 -1 0 3 1 -1 4 6 13 7 3 12 19 -4 -9 -9 5 9 -8 -4 -13 -5 -2 -7 1 -1 1 -2 2 -1 -0 -1 -0 1 1 1 -1 -1 1 1 1 0 0 -3 1 4 -1 -5 -2 1 1 7 -1
-1 0 -1 2 2 -4 -1 -4 -7 10 11 6 3 -3 -3 4 5 1 -15 -11 -9 -1 -2 -2 1 1 -6 1 3 -3 0 -1 1 5 -3 2 -1 3 2 2 -0 -0 -1 1 -5 -8 -8 -5 -1 -2 -1 -1 -0 0
3 2 6 5 2 -8 8 9 16 5 18 -8 -8 1 10 6 -9 -4 -1 -3 3 1 -0 3 -12 -5 8 -3 -0 -1 -0 0 1 5 4 1 2 -0 1 2 -1 -1 -0 2 5 5 4 9 8 6 5 12 8 4
6 0 2 -2 12 16 12 2 19 8 -1 -10 -36 -0 -5 -7 4 -6 1 3 -1 0 6 -5 2 -6 3 -3 -4 5 -1 2 2 -1 2 1 6 2 3 3 2 -1 0 0 -4 -3 -1 0 -1 -2 -1 -4 -5 -8
8 -4 4 23 21 9 20 8 7 -9 -14 -7 -7 -2 8 4 -0 -2 1 6 2 1 6 4 6 -5 0 -2 -1 -2 -2 1 0 2 -2 5 2 0 -2 1 6 -3 -0 -2 0 -3 -1 -1 -0 1 -1 4 -5 2
23 22 11 -1 6 0 0 -6 -6 -7 -11 -2 -1 -1 -1 1 1 1 -2 -3 4 -5 -0 -1 1 -4 0 -2 -1 -4 3 0 3 1 0 2 -0 8 4 -2 -3 -1 -1 -2 -2 -2 -4 -6 -3 -1 -3 -9 14 -3
4 10 2 -1 -4 -2 -6 -6 -0 -8 -4 -3 -5 1 -0 2 3 1 -2 -4 14 -2 -4 3 -1 -10 1 -2 -1 -0 4 0 -3 1 2 4 2 -3 -1 -1 -2 -2 -0 -1 -1 -0 -1 1 -4 3 -0 3 -1 -6
2 -16 13 2 -6 -13 -7 -16 -9 -4 -2 -6 -5 -3 7 -5 6 4 3 4 1 1 -1 -3 -0 -2 1 -4 -0 -2 -1 -1 2 1 2 -5 -1 1 -2 -3 -1 -2 -5 -2 -1 -0 0 -6 -0 -2 1 3 -3 3
-1 -29 9 1 -4 -1 -4 0 -2 -5 -3 -3 -1 2 -2 -4 -4 2 -3 2 -0 -3 -0 -1 -2 3 1 1 1 -0 1 2 0 -0 -1 1 -2 -2 -0 -2 -6 -5 -2 -4 -3 -3 -2 -2 -5 1 -2 -4 -2 -4
-6 -5 4 3 -10 6 3 -0 -1 -2 -2 5 -5 7 -1 -3 -0 2 5 6 -7 -1 -1 1 -4 -1 -1 -1 3 3 2 4 -2 -0 -1 -2 1 -2 -5 1 -5 -3 -1 -0 -6 -1 -1 -2 -0 -1 -3 -2 -3 -1
-4 -0 12 9 3 1 0 -3 1 -3 6 -0 5 1 -2 3 3 -1 -3 -2 -1 -3 -6 -2 -1 -0 1 1 -2 3 2 -3 -3 1 0 -1 -0 -3 -2 -4 -5 -1 -3 -1 -2 -2 -2 -1 0 -1 -1 -3 -1 0
4 -2 2 3 2 2 -2 -2 -1 -4 1 7 0 0 -3 -1 -0 -0 6 2 -5 -3 -1 -0 1 5 -4 3 1 -4 -2 -2 -7 -2 1 -2 -4 -2 0 -0 1 -2 0 -2 1 -5 -2 1 -2 -2 -1 -2 -2 -4
8 8 6 14 -4 -3 -1 1 0 -4 4 -3 5 -1 3 2 0 -3 -4 -5 -1 0 0 3 -0 5 3 -3 -3 -5 -4 -4 -2 0 -2 1 -1 1 -3 -1 -1 -3 -2 -2 -1 1 -0 -1 -1 -2 -1 -3 -3 -1
0 6 -5 -9 -9 -3 -4 2 -6 4 -3 -1 -0 -3 -1 -0 -0 2 0 -1 1 5 -2 -1 1 -1 -3 -3 -2 -1 -2 -3 -4 -5 -3 -3 -2 -1 0 -2 -1 -1 -1 -2 0 -1 -0 -1 -3 -2 -4 -3 -0 1
-4 -3 -3 -1 -7 -5 0 4 -2 2 -3 1 5 0 2 1 4 -0 -2 -1 1 -0 0 1 -4 -0 -3 -2 -2 -0 -2 -3 -2 -1 -3 2 -0 -2 -2 -3 -3 -2 -1 -0 -2 -0 1 -2 -0 -4 -2 -3 0 -2
-2 -9 -5 -3 -4 2 1 0 1 -0 1 -0 -1 0 1 1 -3 0 -0 0 4 -3 -1 -2 1 -4 1 2 -0 -1 -2 -1 -1 -1 -1 -2 -1 0 -0 -0 -1 -2 -2 -2 -2 -2 -1 0 -2 -1 -3 -2 -2 -2
-9 -3 -3 1 -0 -4 -1 -0 -0 -2 0 0 -1 1 2 0 -0 1 -1 2 -1 1 1 0 -2 -0 -3 0 1 1 -2 -2 -1 -1 -1 1 2 -0 -0 -1 -1 -0 -1 -1 -1 -2 -2 -1 -0 -2 -2 -2 -2 -3
-5 -0 -1 1 1 -2 0 -1 -0 -0 -1 -0 1 2 -1 -0 1 -2 -0 0 -2 -2 -4 -5 -5 -0 3 -1 -1 -2 -2 -1 -1 0 -0 -2 -1 -2 -0 0 1 -0 -1 -1 -2 -2 -2 -1 0 -0 -1 -1 -2 -2
-1 1 1 -4 -0 -2 -1 1 0 -3 -0 -1 0 1 -0 1 -1 2 -2 -0 1 -0 -3 -2 -0 -1 -1 -0 1 1 -0 0 3 0 -2 -1 -2 -3 -2 0 -0 -1 -1 -1 -1 -1 -2 -2 -1 -0 -1 -1 -1 -2
1 -0 -2 1 -1 -0 -1 -0 -1 -0 0 1 0 -0 -2 -2 2 3 3 -1 0 3 4 1 3 2 0 -1 -0 -1 -2 -2 -0 -1 -1 -1 -2 -3 -2 -1 -1 0 -1 -1 -2 -1 -1 -2 -2 -1 -0 -1 -1 -1
-1 1 -3 0 0 -1 0 -0 0 1 -1 -1 -2 0 1 2 2 4 1 1 2 1 -1 -3 -2 -1 -0 1 1 1 1 -0 -2 -3 -1 -0 -2 -2 -1 -1 -2 -1 -1 -0 -1 -1 -1 -1 -2 -1 0 0 -2 -3
1 -0 -1 -0 -1 1 3 5 2 2 2 -1 -1 -1 1 0 2 4 3 3 2 0 1 2 2 1 -0 0 -1 -0 -0 -1 -1 -1 -2 -1 -1 -2 -0 -1 -1 -1 -1 -0 -0 -2 -1 -1 -2 -4 -3 -1 -0 -1
-0 -1 -2 -1 1 1 1 0 -0 -0 -1 -0 0 1 2 1 2 1 -1 -1 0 2 2 1 1 1 0 -1 -2 -1 -3 -3 -3 -3 -1 -1 -1 -1 -1 -1 -1 -1 -1 -1 -1 -0 -0 -0 -1 -1 -1 -1 -0 0
-1 0 -0 0 2 -0 -1 -0 -1 -1 -1 -1 -0 -1 -1 -1 2 -1 1 3 3 3 2 2 2 0 1 -1 -1 -0 -1 -2 -1 -1 -1 -1 -1 -1 -1 -1 -2 -1 -1 -1 -1 -1 -1 -1 -1 -1 0 -1 -0 1
-1 -1 -1 -1 1 1 -1 0 0 0 -0 0 0 -1 -0 2 4 -1 -0 0 -1 -1 1 1 1 1 0 -0 -1 0 -1 -2 -2 -0 0 -0 -0 -0 -1 -1 -1 -1 -1 -1 -1 -1 -1 -1 -1 -1 -1 0 0 -0
Height
1191 1201 1214 1227 1239 1251 1263 1275 1286 1296 1306 1315 1323 1330 1337 1342 1351 1360 1364 1368 1374 1377 1389 1395 1400 1406 1412 1418 1427 1442 1451 1455 1462 1462 1460 1454 1448 1450 1445 1440 1446 1451 1460 1459 1458 1457 1450 1443 1453 1460 1451 1453 1454 1455
1190 1200 1212 1225 1238 1249 1261 1272 1282 1292 1301 1309 1315 1322 1329 1339 1344 1355 1357 1366 1369 1378 1391 1394 1398 1403 1407 1414 1417 1430 1433 1439 1445 1451 1453 1449 1451 1445 1443 1450 1442 1449 1444 1442 1444 1438 1444 1448 1450 1451 1451 1452 1453 1452
1189 1201 1214 1226 1238 1249 1260 1270 1279 1288 1296 1302 1307 1311 1317 1324 1333 1342 1352 1357 1369 1379 1393 1398 1401 1404 1406 1409 1412 1418 1431 1433 1438 1441 1446 1451 1452 1452 1452 1448 1442 1447 1447 1449 1448 1443 1446 1447 1449 1450 1449 1448 1448 1447
1193 1204 1216 1228 1238 1248 1258 1268 1277 1285 1291 1296 1299 1305 1308 1314 1326 1338 1345 1352 1360 1372 1390 1406 1403 1405 1407 1408 1410 1412 1415 1426 1434 1442 1445 1448 1444 1445 1439 1440 1443 1440 1446 1447 1447 1448 1447 1446 1445 1446 1446 1443 1442 1441
1197 1207 1219 1229 1238 1248 1257 1267 1274 1280 1285 1291 1296 1299 1300 1309 1319 1332 1342 1349 1355 1365 1388 1405 1407 1409 1408 1409 1411 1414 1419 1425 1435 1442 1442 1440 1440 1443 1443 1445 1438 1437 1440 1446 1444 1443 1445 1445 1445 1445 1443 1441 1439 1437
1202 1212 1221 1230 1239 1248 1256 1265 1271 1277 1282 1287 1293 1298 1298 1306 1317 1328 1342 1346 1351 1359 1377 1402 1413 1415 1414 1416 1418 1422 1426 1431 1434 1436 1437 1439 1443 1443 1441 1433 1436 1439 1439 1441 1443 1444 1445 1445 1444 1443 1441 1438 1435 1432
1207 1215 1223 1232 1241 1249 1256 1264 1271 1276 1279 1286 1289 1294 1299 1309 1314 1322 1331 1338 1350 1356 1373 1403 1413 1419 1419 1421 1425 1429 1431 1432 1433 1436 1436 1437 1442 1444 1444 1435 1439 1443 1443 1444 1444 1444 1444 1442 1439 1438 1436 1434 1432 1430
1210 1217 1224 1234 1242 1250 1257 1264 1271 1278 1281 1287 1290 1296 1301 1308 1316 1324 1335 1339 1346 1354 1375 1397 1414 1421 1422 1423 1428 1431 1431 1432 1436 1437 1439 1438 1443 1443 1442 1438 1442 1444 1444 1444 1443 1441 1439 1438 1436 1434 1431 1429 1429 1426
1214 1222 1228 1236 1242 1250 1254 1261 1268 1273 1277 1286 1292 1298 1303 1313 1322 1332 1336 1342 1348 1360 1376 1389 1397 1409 1418 1422 1426 1429 1430 1433 1437 1436 1437 1440 1438 1440 1437 1439 1441 1444 1445 1443 1441 1439 1437 1436 1434 1433 1431 1428 1427 1423
1217 1225 1232 1240 1245 1251 1255 1260 1265 1270 1277 1288 1297 1303 1314 1321 1325 1330 1343 1350 1359 1367 1375 1380 1384 1396 1407 1413 1420 1428 1428 1432 1432 1434 1439 1438 1432 1436 1441 1442 1443 1444 1444 1443 1442 1440 1439 1437 1435 1433 1430 1427 1425 1423
1219 1226 1232 1239 1244 1248 1253 1259 1264 1271 1282 1288 1300 1313 1325 1326 1330 1339 1347 1351 1360 1370 1377 1383 1387 1387 1404 1404 1412 1418 1422 1427 1425 1433 1433 1431 1431 1441 1441 1442 1444 1444 1443 1442 1440 1439 1438 1436 1434 1429 1427 1425 1423 1420
1221 1228 1233 1238 1245 1252 1259 1264 1271 1276 1280 1288 1300 1317 1327 1332 1335 1334 1343 1348 1350 1364 1373 1381 1387 1394 1399 1405 1411 1416 1419 1425 1422 1433 1434 1428 1433 1439 1440 1443 1443 1444 1443 1442 1440 1439 1436 1434 1432 1430 1427 1425 1423 1421
1223 1230 1235 1241 1248 1254 1262 1267 1272 1277 1286 1299 1304 1316 1323 1323 1323 1326 1340 1343 1352 1358 1367 1377 1384 1389 1399 1404 1410 1413 1422 1424 1429 1431 1424 1424 1438 1440 1440 1441 1442 1441 1441 1441 1442 1440 1437 1435 1434 1432 1429 1427 1424 1421
1222 1231 1238 1245 1253 1260 1268 1273 1281 1286 1292 1298 1304 1315 1317 1324 1325 1321 1320 1331 1344 1354 1365 1372 1376 1385 1395 1402 1408 1417 1420 1423 1422 1421 1419 1429 1435 1436 1439 1440 1441 1442 1441 1441 1441 1440 1438 1436 1434 1432 1429 1426 1422 1419
1232 1240 1248 1256 1262 1269 1275 1282 1285 1289 1297 1307 1313 1322 1331 1335 1331 1331 1335 1338 1350 1355 1362 1371 1379 1387 1396 1405 1405 1414 1420 1417 1411 1408 1421 1428 1433 1437 1437 1439 1441 1441 1441 1441 1440 1440 1437 1435 1433 1431 1428 1425 1421 1418
1245 1251 1261 1267 1273 1281 1287 1292 1296 1300 1309 1318 1327 1330 1332 1331 1334 1339 1342 1345 1353 1360 1367 1372 1380 1389 1395 1397 1401 1407 1403 1405 1410 1417 1427 1431 1435 1435 1437 1439 1441 1441 1440 1440 1440 1438 1436 1434 1432 1429 1426 1423 1419 1417
1259 1264 1273 1280 1286 1287 1289 1295 1301 1310 1319 1328 1335 1334 1337 1342 1346 1349 1351 1356 1361 1363 1368 1371 1379 1387 1392 1394 1397 1395 1401 1411 1416 1423 1428 1430 1433 1435 1436 1438 1438 1439 1440 1440 1438 1437 1435 1433 1430 1426 1423 1421 1418 1415
1266 1276 1282 1285 1287 1295 1300 1305 1312 1321 1334 1341 1344 1347 1349 1350 1353 1356 1360 1361 1364 1365 1367 1373 1378 1384 1392 1388 1395 1404 1408 1414 1420 1425 1427 1429 1432 1434 1435 1437 1438 1438 1439 1438 1436 1435 1433 1430 1427 1425 1422 1419 1416 1412
1274 1282 1287 1291 1293 1297 1303 1311 1316 1330 1341 1343 1347 1349 1352 1355 1358 1360 1361 1365 1366 1368 1371 1377 1381 1383 1387 1390 1397 1405 1409 1415 1421 1425 1428 1430 1432 1433 1434 1434 1435 1437 1436 1435 1434 1433 1431 1428 1426 1424 1421 1418 1414 1411
1285 1289 1290 1291 1293 1299 1309 1320 1324 1332 1343 1350 1352 1356 1359 1361 1365 1368 1369 1366 1370 1373 1380 1379 1382 1386 1391 1396 1400 1405 1412 1416 1420 1425 1428 1430 1431 1432 1433 1434 1435 1434 1434 1433 1432 1430 1428 1427 1425 1422 1419 1416 1412 1409
1293 1294 1294 1295 1297 1304 1315 1325 1332 1342 1348 1353 1357 1358 1363 1368 1365 1369 1373 1377 1377 1377 1379 1383 1390 1395 1395 1399 1405 1409 1413 1416 1419 1421 1423 1427 1429 1430 1431 1432 1432 1433 1433 1432 1431 1429 1426 1425 1423 1420 1417 1414 1410 1407
1294 1295 1295 1296 1304 1315 1325 1331 1337 1344 1350 1356 1359 1363 1369 1372 1376 1376 1376 1375 1376 1380 1384 1390 1393 1394 1399 1403 1408 1411 1413 1415 1417 1420 1422 1424 1426 1428 1429 1430 1431 1431 1430 1429 1428 1426 1424 1422 1419 1417 1414 1412 1408 1405
1296 1297 1302 1308 1314 1327 1344 1342 1344 1348 1357 1362 1362 1360 1364 1368 1370 1371 1373 1376 1382 1386 1388 1390 1394 1399 1402 1405 1408 1411 1412 1415 1418 1420 1422 1423 1424 1425 1426 1427 1427 1427 1427 1426 1425 1424 1422 1418 1417 1414 1413 1410 1407 1403
1299 1304 1312 1318 1325 1335 1339 1340 1342 1346 1349 1349 1352 1359 1364 1368 1373 1376 1376 1377 1382 1385 1388 1392 1396 1399 1404 1407 1409 1411 1413 1416 1418 1419 1420 1420 1422 1423 1424 1425 1424 1424 1423 1422 1421 1420 1419 1417 1414 1413 1410 1408 1406 1402
1308 1322 1323 1328 1330 1334 1338 1343 1344 1346 1353 1356 1361 1365 1370 1373 1374 1375 1375 1376 1381 1384 1388 1392 1396 1399 1401 1404 1407 1410 1412 1414 1415 1416 1417 1418 1420 1421 1422 1422 1422 1421 1419 1419 1419 1417 1417 1414 1412 1410 1409 1407 1404 1401
1321 1331 1331 1334 1337 1337 1339 1344 1347 1350 1353 1358 1363 1366 1370 1372 1374 1372 1370 1374 1378 1381 1384 1388 1392 1396 1399 1402 1405 1407 1409 1410 1412 1413 1414 1416 1417 1418 1419 1420 1420 1419 1416 1416 1415 1414 1414 1412 1410 1408 1407 1405 1403 1400
1326 1333 1334 1335 1335 1337 1342 1346 1348 1351 1355 1359 1362 1367 1368 1369 1368 1370 1373 1375 1377 1379 1382 1388 1392 1395 1398 1400 1403 1404 1405 1406 1409 1411 1411 1413 1413 1414 1415 1416 1416 1415 1413 1413 1412 1411 1410 1409 1408 1407 1405 1403 1401 1398
1334 1335 1336 1339 1339 1340 1343 1347 1351 1353 1355 1356 1360 1363 1364 1362 1366 1372 1372 1373 1376 1379 1383 1388 1391 1394 1396 1397 1397 1398 1400 1402 1405 1406 1408 1409 1410 1411 1412 1412 1411 1411 1410 1410 1410 1409 1408 1407 1406 1405 1403 1401 1399 1397
1337 1339 1340 1343 1343 1345 1348 1350 1352 1355 1357 1357 1360 1361 1365 1367 1370 1371 1371 1373 1376 1379 1382 1385 1388 1390 1392 1394 1395 1397 1399 1400 1402 1404 1406 1408 1408 1409 1408 1409 1409 1408 1408 1407 1407 1406 1406 1405 1404 1402 1401 1399 1397 1395
1341 1342 1342 1345 1345 1348 1354 1354 1355 1357 1359 1360 1361 1363 1365 1368 1369 1371 1373 1375 1378 1380 1383 1386 1387 1389 1390 1392 1393 1395 1397 1399 1401 1403 1404 1406 1406 1405 1406 1406 1406 1406 1405 1405 1404 1404 1403 1403 1402 1400 1399 1398 1396 1394
1343 1343 1345 1346 1351 1355 1356 1356 1357 1358 1359 1361 1362 1364 1367 1369 1372 1373 1375 1377 1378 1380 1382 1384 1385 1387 1388 1389 1390 1392 1394 1396 1398 1400 1401 1402 1403 1404 1404 1404 1404 1403 1403 1403 1403 1402 1401 1401 1400 1399 1398 1396 1395 1393
1345 1346 1346 1348 1355 1358 1357 1358 1360 1361 1362 1363 1365 1367 1369 1370 1373 1374 1374 1375 1377 1378 1379 1381 1383 1384 1386 1388 1389 1390 1392 1394 1396 1397 1399 1400 1400 1401 1401 1401 1401 1401 1401 1401 1401 1400 1399 1399 1398 1397 1396 1394 1393 1391
1349 1349 1350 1352 1354 1356 1359 1359 1360 1363 1364 1365 1367 1368 1369 1370 1370 1373 1372 1373 1374 1375 1377 1378 1380 1382 1384 1386 1388 1389 1391 1393 1394 1396 1397 1398 1398 1399 1399 1399 1399 1399 1399 1399 1398 1398 1397 1396 1396 1395 1394 1393 1391 1390